Location: Presov
(49.0000°N, 21.2500°E)
Time: 12:22:09
(UTC+02:00)

ISS - Pass Details

Date: 10 July 2022
Orbit: 412 x 420 km, 51.6° (Epoch: 17 August)

Event Time Altitude Azimuth Distance (km) Brightness Sun altitude
Rises 02:27:35 0° 280° (W) 2,360 -0.1 -14.8°
Reaches altitude 10° 02:29:43 10° 285° (WNW) 1,498 -1.1 -14.7°
Maximum altitude 02:33:01 52° 3° (N) 528 -2.9 -14.4°
Drops below altitude 10° 02:36:19 10° 82° (E) 1,503 -0.5 -14.2°
Sets 02:38:27 0° 87° (E) 2,369 0.5 -14.0°
